STARLINK-34260, 64334

Orbit data source: Space-Track

STARLINK-34260, 64334 is a payload satellite owned by SpaceX/Seattle (US) in LEO that was launched on Tue, 10 Jun 2025 UTC via an FALCON 9 launch vehicle from the Air Force Eastern Test Range (AFETR). Payload-class satellites include a variety of spacecraft equipped with specific instruments for various scientific and technological missions. These include communications satellites like Starlink; space stations such as the ISS; scientific satellites like the Hubble; Earth observation satellites from companies like Planet Labs, Umbra, and HawkEye 360; GPS; miniature CubeSats for education and research; and military/defense satellites.

Loading next visibility...
Identifier
64334, 2025-124T
Orbit
LEO
Country
Flag of USUS
Related business
Manufacturer
SpaceX/Seattle
Mission
Operational Commercial Communications
Bus & Motor
STARLINK V2MO, Unknown motor
Mass
575 kg wet, ~530 kg dry
Launch date (UTC)
2025-06-10 (10 months ago)
Launch vehicle
FALCON 9
Launch site
Air Force Eastern Test Range (AFETR)
Object type
Payload
Rocket body
Debris
Shape & HBR
Box + 2 Pan, 17.7 m
Radar Cross Section
36.964 m², Large (>1 m²)

Expand to show TLE details & history
Last TLE update: 7 hours ago

TLE from 7 hours ago
0 STARLINK-34260
1 64334U 25124T   26110.44437097  .00014678  00000-0  54200-3 0  9992
2 64334  42.9986 246.1239 0001037 228.8010 131.2752 15.27570826 48162
Epoch: 2026-04-20T10:39Z
TLE epoch observation values (Epoch: 2026-04-20T10:39:53.651Z)
Latitude
-0.00005°
Longitude
-122.38412°
Altitude
483.321 km
Speed
7.625 km/s
True Right ascension
16h 24m 29s
True Declination
0° 00' 00"
Sunlit
Object was in full shadow at epoch
Visualization orbit readout
Latitude
Unknown
Longitude
Unknown
Altitude
Unknown
Speed
Unknown
Apparent Right ascension
Unknown
Apparent Declination
Unknown
Sunlit
N/A
Visualization observer readout
Local Sidereal Time
00:59:14
Azimuth
Unknown
Elevation
Unknown
Doppler factor
Unknown
Orbital elements
Apogee altitude
485.734 km
Perigee altitude
484.31 km
Semi-major axis
6,863.159 km
Eccentricity
0.0001
Inclination
42.9986°
RAAN
246.1239°
Arg. of periapsis
228.801°
True anomaly
131.28413°
Mean anomaly
131.2752°
Eccentric anomaly
131.27967°
Mean motion
3.81731 °/min
Orbital period
94.31 mins
BSTAR
0.000542
Loading maneuver chart data...
Computing Atmospheric mass density...
Loading historical data...
Loading historical data...
Loading historical data...
Loading historical data...
Loading historical data...
Loading historical data...
Loading historical data...

Documentation

Showing up to 5 results
|